IRNSS-1C

Last updated on Mon Oct 14 2024 00:02:39 GMT+0000 (Coordinated Universal Time)

1 40269U 14061A 24287.49456267 -.00000159 00000+0 00000+0 0 9993 2 40269 4.9591 101.8967 0019741 7.4397 174.2346 1.00274262 36555
UTC large
Height (km)
Speed (km/s)
/
Latitude / Longitude
Inclination (degrees)
Orbital Period (minutes)
Azimuth
Elevation
Range (km)
Doppler Factor

Next 0 passes for location: London (51.5072 / 0.1276)

Sorry there are no passes over London.